DW2004 Weather Reports


Display with metric or nautical units.
time (UTC)temp
F
wind
direction
speed
MPH
gust
MPH
rain 1hr
in
rain 24hr
in
rain mn
in
humidity
%
barometer
mb
20260506051004 61 348 1.0 12.0 0.00 0.00 0.00 77 1010.4
20260506044508 62 340 1.0 9.0 0.00 0.00 0.00 77 1010.4
20260506044004 62 321 3.0 8.0 0.00 0.00 0.00 76 1010.4
20260506043504 62 333 0.0 10.0 0.00 0.00 0.00 77 1010.4
20260506043007 62 331 2.0 10.0 0.00 0.00 0.00 76 1010.5
20260506042504 62 342 4.0 10.0 0.00 0.00 0.00 76 1010.2
20260506041508 62 21 2.0 10.0 0.00 0.00 0.00 76 1010.3
20260506041004 63 318 2.0 13.0 0.00 0.00 0.00 76 1010.2
20260506040503 63 329 1.0 13.0 0.00 0.00 0.00 76 1010.1
20260506040008 63 348 3.0 12.0 0.00 0.00 0.00 76 1010.1
20260506035002 63 13 4.0 12.0 0.00 0.00 0.00 76 1009.8
20260506034506 64 31 2.0 12.0 0.00 0.00 0.00 76 1009.8
20260506034003 64 360 2.0 9.0 0.00 0.00 0.00 75 1009.6
20260506032502 64 22 2.0 11.0 0.00 0.00 0.00 76 1009.5
20260506032002 64 71 0.0 10.0 0.00 0.00 0.00 76 1009.4
20260506031506 64 67 1.0 11.0 0.00 0.00 0.00 75 1009.4
20260506031002 65 344 3.0 11.0 0.00 0.00 0.00 74 1009.5
20260506030502 65 348 4.0 14.0 0.00 0.00 0.00 74 1009.5
20260506030008 65 344 4.0 15.0 0.00 0.00 0.00 75 1009.3
20260506025502 66 329 3.0 15.0 0.00 0.00 0.00 75 1009.1
20260506025002 66 32 4.0 11.0 0.00 0.00 0.00 75 1009.1
20260506024507 66 11 4.0 11.0 0.00 0.00 0.00 74 1008.9
20260506024003 67 11 4.0 11.0 0.00 0.00 0.00 74 1008.8
20260506023503 67 310 2.0 11.0 0.00 0.00 0.00 74 1008.6
20260506023006 67 355 4.0 11.0 0.00 0.00 0.00 74 1008.5
20260506022002 68 333 1.0 9.0 0.00 0.00 0.00 74 1007.9
20260506020502 68 345 1.0 8.0 0.00 0.00 0.00 73 1007.7
20260506020008 68 319 1.0 8.0 0.00 0.00 0.00 73 1007.5
20260506015503 69 21 1.0 8.0 0.00 0.00 0.00 73 1007.5
20260506015003 69 329 1.0 6.0 0.00 0.00 0.00 72 1007.5
20260506014507 69 314 1.0 8.0 0.00 0.00 0.00 72 1007.2
20260506014003 69 306 1.0 8.0 0.00 0.00 0.00 72 1007.2
20260506013503 69 320 0.0 5.0 0.00 0.00 0.00 71 1007.2
20260506012502 69 340 1.0 5.0 0.00 0.00 0.00 71 1007.0
20260506012003 69 335 1.0 6.0 0.00 0.00 0.00 70 1007.0
20260506011506 69 331 0.0 8.0 0.00 0.00 0.00 70 1007.1
20260506011002 70 342 1.0 8.0 0.00 0.00 0.00 70 1006.8
20260506010503 70 14 0.0 10.0 0.00 0.00 0.00 70 1006.7
20260506005502 70 342 2.0 14.0 0.00 0.00 0.00 69 1006.5
20260506005003 71 338 2.0 11.0 0.00 0.00 0.00 69 1006.9
20260506004506 71 321 3.0 10.0 0.00 0.00 0.00 69 1006.1
20260506004003 71 340 1.0 12.0 0.00 0.00 0.00 69 1005.6
20260506003504 72 13 6.0 14.0 0.00 0.00 0.00 68 1005.9
20260506003006 72 321 6.0 17.0 0.00 0.00 0.00 68 1005.9
20260506002502 72 336 6.0 17.0 0.00 0.00 0.00 67 1005.7
20260506002003 73 340 3.0 13.0 0.00 0.00 0.00 67 1005.6
20260506001505 73 360 2.0 14.0 0.00 0.00 0.00 67 1005.7
20260506001002 73 329 5.0 15.0 0.00 0.00 0.00 66 1005.9
20260506000503 74 331 6.0 15.0 0.00 0.00 0.00 66 1005.8
20260506000008 74 320 3.0 12.0 0.00 0.00 0.00 66 1005.5
20260505235504 74 355 2.0 12.0 0.00 0.00 0.00 66 1005.8
20260505235002 74 355 4.0 13.0 0.00 0.00 0.00 65 1005.8
20260505234002 75 349 3.0 17.0 0.00 0.00 0.00 65 1005.6
20260505233502 76 355 4.0 17.0 0.00 0.00 0.00 65 1005.5
20260505233006 76 355 6.0 14.0 0.00 0.00 0.00 64 1005.4
20260505232503 77 19 5.0 14.0 0.00 0.00 0.00 63 1005.2
20260505232002 78 9 7.0 14.0 0.00 0.00 0.00 62 1005.0
20260505231002 79 346 5.0 16.0 0.00 0.00 0.00 62 1005.1
20260505230008 80 279 6.0 15.0 0.00 0.00 0.00 62 1005.0
20260505225505 81 10 4.0 12.0 0.00 0.00 0.00 62 1005.0
20260505224505 82 330 3.0 11.0 0.00 0.00 0.00 60 1004.6
20260505224001 82 321 4.0 11.0 0.00 0.00 0.00 59 1004.5
20260505223009 83 328 2.0 11.0 0.00 0.00 0.00 57 1004.6
20260505222502 84 288 3.0 11.0 0.00 0.00 0.00 56 1004.4
20260505222001 85 321 2.0 11.0 0.00 0.00 0.00 55 1004.1
20260505221507 84 336 1.0 11.0 0.00 0.00 0.00 56 1004.1
20260505221000 85 326 4.0 11.0 0.00 0.00 0.00 54 1004.1
20260505220501 86 337 4.0 11.0 0.00 0.00 0.00 52 1004.1
20260505215502 86 306 0.0 11.0 0.00 0.00 0.00 53 1003.9
20260505214516 86 290 2.0 12.0 0.00 0.00 0.00 48 1004.0
20260505214001 86 5 5.0 13.0 0.00 0.00 0.00 47 1004.2
20260505213502 87 321 6.0 13.0 0.00 0.00 0.00 45 1004.1
20260505213008 87 341 4.0 11.0 0.00 0.00 0.00 46 1004.1
20260505212501 87 344 3.0 8.0 0.00 0.00 0.00 48 1004.0
20260505212001 88 349 3.0 10.0 0.00 0.00 0.00 47 1003.9
20260505211505 89 5 2.0 9.0 0.00 0.00 0.00 56 1003.9
20260505211002 89 268 1.0 11.0 0.00 0.00 0.00 54 1004.1
20260505210501 89 240 2.0 11.0 0.00 0.00 0.00 55 1004.1
20260505210006 88 223 0.0 8.0 0.00 0.00 0.00 55 1004.1
20260505205501 89 210 2.0 10.0 0.00 0.00 0.00 53 1004.3
20260505205015 90 227 4.0 11.0 0.00 0.00 0.00 53 1004.3
20260505204504 90 251 3.0 12.0 0.00 0.00 0.00 54 1004.2
20260505204003 89 246 4.0 12.0 0.00 0.00 0.00 54 1004.2
20260505203502 89 257 1.0 11.0 0.00 0.00 0.00 54 1004.3
20260505203005 89 209 2.0 12.0 0.00 0.00 0.00 56 1004.3
20260505202501 88 208 6.0 12.0 0.00 0.00 0.00 55 1004.2
20260505201505 89 261 5.0 14.0 0.00 0.00 0.00 54 1004.6
20260505201001 88 210 3.0 10.0 0.00 0.00 0.00 55 1004.7
20260505200007 88 249 1.0 12.0 0.00 0.00 0.00 60 1004.6
20260505195501 87 207 3.0 15.0 0.00 0.00 0.00 58 1004.5
20260505194505 88 241 4.0 10.0 0.00 0.00 0.00 58 1004.7
20260505194005 87 279 1.0 10.0 0.00 0.00 0.00 60 1004.7
20260505193502 87 232 2.0 15.0 0.00 0.00 0.00 60 1004.8
20260505192501 87 254 2.0 14.0 0.00 0.00 0.00 59 1004.7
20260505192001 86 265 7.0 14.0 0.00 0.00 0.00 59 1004.6
20260505191505 86 203 7.0 17.0 0.00 0.00 0.00 59 1004.6
20260505190501 86 263 4.0 12.0 0.00 0.00 0.00 62 1004.6
20260505190011 85 207 2.0 10.0 0.00 0.00 0.00 65 1004.7
20260505185501 85 180 2.0 9.0 0.00 0.00 0.00 66 1004.6
20260505185001 84 159 4.0 12.0 0.00 0.00 0.00 65 1004.6
20260505184505 84 181 3.0 12.0 0.00 0.00 0.00 64 1004.6
20260505184001 84 223 2.0 10.0 0.00 0.00 0.00 65 1004.7
20260505183502 84 265 3.0 14.0 0.00 0.00 0.00 65 1004.8
20260505182501 84 190 6.0 15.0 0.00 0.00 0.00 65 1004.7
20260505181505 84 224 5.0 15.0 0.00 0.00 0.00 64 1004.7
20260505181001 84 246 1.0 10.0 0.00 0.00 0.00 66 1004.8
20260505180501 84 145 3.0 14.0 0.00 0.00 0.00 66 1004.8
20260505180006 83 242 6.0 14.0 0.00 0.00 0.00 64 1004.8
20260505175500 83 216 4.0 16.0 0.00 0.00 0.00 66 1004.7
20260505174504 82 194 5.0 20.0 0.00 0.00 0.00 67 1004.8
20260505174001 82 217 4.0 13.0 0.00 0.00 0.00 68 1004.8
20260505173500 82 215 3.0 13.0 0.00 0.00 0.00 69 1004.8
20260505173006 81 238 4.0 11.0 0.00 0.00 0.00 69 1004.8
20260505172500 81 236 3.0 12.0 0.00 0.00 0.00 69 1004.7
20260505172000 81 217 7.0 14.0 0.00 0.00 0.00 68 1004.9
20260505171000 80 195 4.0 15.0 0.00 0.00 0.00 69 1004.8
20260505170500 80 240 5.0 11.0 0.00 0.00 0.00 69 1004.9
20260505170008 80 218 5.0 11.0 0.00 0.00 0.00 70 1004.8
20260505165500 80 232 2.0 11.0 0.00 0.00 0.00 71 1004.9
20260505165000 80 200 3.0 10.0 0.00 0.00 0.00 71 1004.9
20260505164503 80 227 4.0 13.0 0.00 0.00 0.00 71 1004.9
20260505164000 80 251 3.0 11.0 0.00 0.00 0.00 72 1004.9
20260505163500 79 222 3.0 11.0 0.00 0.00 0.00 72 1004.9
20260505163004 79 222 3.0 14.0 0.00 0.00 0.00 72 1004.7
20260505162500 79 214 4.0 14.0 0.00 0.00 0.00 72 1004.8
20260505161000 78 212 2.0 17.0 0.00 0.00 0.00 73 1004.7
20260505160500 78 179 6.0 16.0 0.00 0.00 0.00 72 1004.5
20260505153005 77 250 4.0 16.0 0.00 0.00 0.00 74 1004.4
20260505152500 77 200 4.0 13.0 0.00 0.00 0.00 75 1004.4
20260505152000 77 232 5.0 13.0 0.00 0.00 0.00 75 1004.3
20260505151000 76 249 2.0 12.0 0.00 0.00 0.00 77 1004.4
20260505150500 76 237 5.0 13.0 0.00 0.00 0.00 76 1004.5
20260505140500 74 198 2.0 9.0 0.00 0.00 0.00 80 1004.5
20260505125001 72 215 4.0 15.0 0.00 0.00 0.00 83 1004.2
20260505124502 72 222 5.0 11.0 0.00 0.00 0.00 83 1004.0
20260505123959 72 236 4.0 14.0 0.00 0.00 0.00 83 1003.8
20260505123459 72 205 4.0 14.0 0.00 0.00 0.00 83 1003.8
20260505121959 72 190 4.0 13.0 0.00 0.00 0.00 83 1003.6
20260505121502 72 199 4.0 15.0 0.00 0.00 0.00 83 1003.6
20260505120005 72 246 6.0 13.0 0.00 0.00 0.00 83 1003.6
20260505115458 72 253 5.0 13.0 0.00 0.00 0.00 83 1003.5
20260505114959 72 230 2.0 14.0 0.00 0.00 0.00 82 1003.5
20260505114509 72 186 3.0 19.0 0.00 0.00 0.00 82 1003.5
20260505114000 72 210 5.0 12.0 0.00 0.00 0.00 82 1003.4
20260505113500 72 233 6.0 20.0 0.00 0.00 0.00 82 1003.3
20260505113003 72 202 6.0 20.0 0.00 0.00 0.00 82 1003.3
20260505111959 72 250 8.0 14.0 0.00 0.00 0.00 82 1003.3
20260505111502 71 194 5.0 14.0 0.00 0.00 0.00 82 1003.4
20260505110959 72 237 3.0 14.0 0.00 0.00 0.00 82 1003.4
20260505110500 72 217 3.0 12.0 0.00 0.00 0.00 82 1003.4
20260505101959 72 210 3.0 11.0 0.00 0.00 0.00 81 1003.5
20260505100959 72 196 4.0 14.0 0.00 0.00 0.00 81 1003.3
20260505100459 72 219 3.0 11.0 0.00 0.00 0.00 80 1003.3
20260505100004 72 182 4.0 15.0 0.00 0.00 0.00 81 1003.3
20260505094959 72 203 4.0 16.0 0.00 0.00 0.00 80 1003.4
20260505094505 73 199 4.0 10.0 0.00 0.00 0.00 80 1003.4
20260505093959 73 232 4.0 11.0 0.00 0.00 0.00 80 1003.4
20260505093001 73 163 2.0 9.0 0.00 0.00 0.00 80 1003.6
20260505091959 73 211 3.0 15.0 0.00 0.00 0.00 79 1003.7
20260505090958 73 215 5.0 16.0 0.00 0.00 0.00 79 1003.8
20260505090458 73 190 3.0 16.0 0.00 0.00 0.00 79 1003.9
20260505090009 73 210 3.0 10.0 0.00 0.00 0.00 79 1003.8
20260505084501 73 231 3.0 12.0 0.00 0.00 0.00 78 1003.8
20260505083958 73 230 4.0 12.0 0.00 0.00 0.00 78 1003.9
20260505083458 73 230 3.0 14.0 0.00 0.00 0.00 78 1003.9
20260505083002 73 202 4.0 13.0 0.00 0.00 0.00 77 1003.9
20260505082459 73 165 3.0 16.0 0.00 0.00 0.00 77 1003.8
20260505081501 74 167 2.0 13.0 0.00 0.00 0.00 76 1003.9
20260505080958 74 227 2.0 13.0 0.00 0.00 0.00 76 1003.9
20260505080458 74 198 5.0 13.0 0.00 0.00 0.00 76 1003.9
20260505080004 74 163 2.0 10.0 0.00 0.00 0.00 75 1004.0
20260505075458 74 229 1.0 14.0 0.00 0.00 0.00 75 1004.0
20260505074958 74 217 4.0 14.0 0.00 0.00 0.00 75 1004.1
20260505074501 74 114 2.0 12.0 0.00 0.00 0.00 75 1004.2
20260505073958 74 191 3.0 11.0 0.00 0.00 0.00 75 1004.3
20260505073458 74 211 3.0 11.0 0.00 0.00 0.00 74 1004.4
20260505071958 74 215 5.0 16.0 0.00 0.00 0.00 73 1004.7
20260505071501 74 232 3.0 14.0 0.00 0.00 0.00 73 1004.8
20260505070958 75 266 3.0 14.0 0.00 0.00 0.00 73 1004.8
20260505070459 75 200 4.0 12.0 0.00 0.00 0.00 72 1004.8
20260505070003 75 180 3.0 12.0 0.00 0.00 0.00 72 1004.9
20260505065459 75 200 2.0 16.0 0.00 0.00 0.00 72 1004.9
20260505064957 75 186 4.0 16.0 0.00 0.00 0.00 71 1005.1
20260505064501 75 232 4.0 13.0 0.00 0.00 0.00 71 1005.2
20260505063958 75 205 4.0 13.0 0.00 0.00 0.00 70 1005.3
20260505063003 76 196 3.0 12.0 0.00 0.00 0.00 70 1005.3
20260505062458 76 254 5.0 12.0 0.00 0.00 0.00 69 1005.3
20260505061958 76 223 1.0 12.0 0.00 0.00 0.00 69 1005.4
20260505061502 76 242 3.0 12.0 0.00 0.00 0.00 69 1005.4
20260505060010 76 215 4.0 10.0 0.00 0.00 0.00 69 1005.4
20260505055503 76 194 2.0 10.0 0.00 0.00 0.00 69 1005.5
20260505055004 76 211 3.0 11.0 0.00 0.00 0.00 69 1005.4
20260505054507 76 246 3.0 11.0 0.00 0.00 0.00 69 1005.2